Deering, AK

11:18 AM AKST on November 17, 2017 (GMT -0900)
Deering (New)

Weather History for PADE - September, 2013

Change the Weather History Date:

Thursday, September 26, 2013

  Actual Average (PAOT) Record (PAOT)
Temperature  
Mean Temperature 35 °F -  
Max Temperature 39 °F 41 °F 56 °F (1966)
Min Temperature 33 °F 32 °F 20 °F (1948)
Degree Days  
Heating Degree Days 30    
Moisture  
Dew Point 27 °F    
Average Humidity 75    
Maximum Humidity 92    
Minimum Humidity 57    
Precipitation  
Precipitation 0.01 in - - ()
Sea Level Pressure  
Sea Level Pressure 29.56 in    
Wind  
Wind Speed 9 mph (NNW)    
Max Wind Speed 16 mph    
Max Gust Speed 22 mph    
Visibility 9 miles    
Events Rain , Snow    
Averages and records for this station are not official NWS values.
T = Trace of Precipitation, MM = Missing Value Source: NWS Daily Summary

Daily Weather History Graph

Daily Weather History Graph

Search for Another Location

Airport or City:

Trip Planner

Search our weather history database for the weather conditions in past years. The results will help you decide how hot, cold, wet, or windy it might be!

Date:

Astronomy

Sep. 26, 2013 Rise Set
Actual Time 8:47 AM AKDT 8:35 PM AKDT
Civil Twilight 7:56 AM AKDT 9:26 PM AKDT
Nautical Twilight 6:54 AM AKDT 10:27 PM AKDT
Astronomical Twilight 5:42 AM AKDT 11:37 PM AKDT
Moon 11:31 PM AKDT (9/26) 6:04 PM AKDT (9/26)
Length of Visible Light 13h 29m
Length of Day
11h 47m
Waning Gibbous, 53% of the Moon is Illuminated
Sep 26
Waning Gibbous
Sep 26
Last Quarter
Oct 4
New
Oct 11
First Quarter
Oct 18
Full

Hourly Weather History & Observations

Time (AKDT) Temp. Windchill Dew Point Humidity Pressure Visibility Wind Dir Wind Speed Gust Speed Precip Events Conditions
12:53 AM 35.1 °F 26.4 °F 24.1 °F 64% 29.65 in 10.0 mi NW 12.7 mph - N/A   Clear
1:53 AM 35.1 °F 25.2 °F 24.1 °F 64% 29.66 in 10.0 mi NNW 16.1 mph - N/A   Scattered Clouds
2:53 AM 35.1 °F 26.4 °F 24.1 °F 64% 29.65 in 10.0 mi NNW 12.7 mph - N/A   Clear
3:53 AM 35.1 °F 26.4 °F 24.1 °F 64% 29.66 in 10.0 mi NW 12.7 mph - N/A   Partly Cloudy
4:53 AM 35.1 °F 28.6 °F 24.1 °F 64% 29.67 in 10.0 mi NNW 8.1 mph - N/A   Mostly Cloudy
5:53 AM 36.0 °F 29.0 °F 24.1 °F 62% 29.66 in 10.0 mi North 9.2 mph - N/A   Overcast
6:53 AM 35.1 °F 28.6 °F 25.0 °F 67% 29.65 in 10.0 mi NNW 8.1 mph - N/A   Overcast
7:20 AM 35.6 °F 31.7 °F 24.8 °F 65% 29.64 in 10.0 mi North 4.6 mph - N/A   Overcast
7:53 AM 35.1 °F 29.3 °F 27.0 °F 72% 29.64 in 10.0 mi West 6.9 mph - N/A   Overcast
8:53 AM 33.1 °F 26.9 °F 30.0 °F 89% 29.63 in 1.8 mi WNW 6.9 mph - 0.00 in Snow Light Snow
9:02 AM 33.8 °F 28.6 °F 30.2 °F 87% 29.63 in 0.8 mi NW 5.8 mph - 0.00 in Snow Light Snow
9:06 AM 33.8 °F 28.6 °F 30.2 °F 87% 29.63 in 1.2 mi WNW 5.8 mph - 0.00 in Snow Light Snow
9:19 AM 33.8 °F 29.6 °F 30.2 °F 87% 29.62 in 3.0 mi West 4.6 mph - 0.00 in Snow Light Snow
9:38 AM 33.8 °F 26.4 °F 28.4 °F 81% 29.62 in 2.0 mi WNW 9.2 mph - 0.00 in Snow Light Snow
9:53 AM 33.1 °F 28.7 °F 28.9 °F 85% 29.62 in 6.0 mi NNW 4.6 mph - 0.00 in Snow Light Snow
10:16 AM 33.8 °F 27.7 °F 28.4 °F 81% 29.61 in 10.0 mi NW 6.9 mph - 0.00 in   Overcast
10:53 AM 33.1 °F 28.7 °F 28.9 °F 85% 29.61 in 10.0 mi West 4.6 mph - 0.01 in   Overcast
11:19 AM 33.8 °F 29.6 °F 30.2 °F 87% 29.60 in 10.0 mi SW 4.6 mph - N/A   Overcast
11:36 AM 33.8 °F 30.8 °F 30.2 °F 87% 29.60 in 10.0 mi SSW 3.5 mph - N/A   Overcast
11:53 AM 33.1 °F 28.7 °F 30.9 °F 92% 29.60 in 10.0 mi WSW 4.6 mph - N/A   Overcast
12:48 PM 33.8 °F 30.8 °F 30.2 °F 87% 29.57 in 10.0 mi SW 3.5 mph - N/A   Overcast
12:53 PM 34.0 °F 31.0 °F 30.9 °F 89% 29.57 in 10.0 mi SW 3.5 mph - N/A   Overcast
1:53 PM 36.0 °F 33.3 °F 30.9 °F 82% 29.55 in 10.0 mi SW 3.5 mph - N/A   Overcast
2:53 PM 37.0 °F 32.4 °F 28.0 °F 70% 29.53 in 10.0 mi ENE 5.8 mph - N/A   Overcast
3:53 PM 37.9 °F 30.9 °F 24.1 °F 57% 29.50 in 10.0 mi North 10.4 mph - N/A   Scattered Clouds
4:53 PM 37.9 °F 31.5 °F 27.0 °F 65% 29.47 in 10.0 mi North 9.2 mph - N/A   Partly Cloudy
5:53 PM 37.0 °F 29.3 °F 24.1 °F 59% 29.46 in 10.0 mi ENE 11.5 mph - N/A   Clear
6:53 PM 37.0 °F 31.0 °F 26.1 °F 65% 29.44 in 10.0 mi NE 8.1 mph - N/A   Scattered Clouds
7:53 PM 36.0 °F 27.5 °F 24.1 °F 62% 29.42 in 10.0 mi NE 12.7 mph - N/A   Overcast
8:53 PM 35.1 °F 27.9 °F 26.1 °F 70% 29.41 in 9.0 mi ENE 9.2 mph - N/A   Overcast
9:23 PM 33.8 °F 25.3 °F 28.4 °F 81% 29.40 in 9.0 mi NNE 11.5 mph 21.9 mph 0.00 in   Overcast
9:35 PM 35.6 °F 27.5 °F 30.2 °F 81% 29.40 in 10.0 mi NNE 11.5 mph - 0.00 in   Overcast
9:53 PM 36.0 °F 29.0 °F 25.0 °F 64% 29.40 in 10.0 mi NNE 9.2 mph - 0.00 in   Overcast
10:08 PM 35.6 °F 28.0 °F 28.4 °F 75% 29.39 in 7.0 mi NE 10.4 mph - 0.00 in   Overcast
10:53 PM 36.0 °F 26.3 °F 30.0 °F 79% 29.39 in 10.0 mi NE 16.1 mph 21.9 mph 0.00 in Rain Light Rain